| time (UTC) | temp F | wind direction | speed MPH | gust MPH | rain 1hr in | rain 24hr in | rain mn in | humidity % | barometer mb |
| 20260504185515 | 76 | 134 | 2.0 | 6.0 | 0.00 | 0.00 | 0.00 | 34 | 1016.1 |
| 20260504185015 | 76 | 201 | 0.0 | 5.0 | 0.00 | 0.00 | 0.00 | 37 | 1016.2 |
| 20260504184518 | 76 | 198 | 2.0 | 9.0 | 0.00 | 0.00 | 0.00 | 37 | 1016.4 |
| 20260504184014 | 76 | 270 | 4.0 | 9.0 | 0.00 | 0.00 | 0.00 | 36 | 1016.3 |
| 20260504183513 | 75 | 245 | 1.0 | 9.0 | 0.00 | 0.00 | 0.00 | 39 | 1016.4 |
| 20260504183012 | 75 | 205 | 3.0 | 8.0 | 0.00 | 0.00 | 0.00 | 35 | 1016.6 |
| 20260504182513 | 74 | 271 | 1.0 | 8.0 | 0.00 | 0.00 | 0.00 | 38 | 1016.7 |
| 20260504182010 | 74 | 205 | 2.0 | 8.0 | 0.00 | 0.00 | 0.00 | 37 | 1016.7 |
| 20260504181512 | 74 | 255 | 2.0 | 8.0 | 0.00 | 0.00 | 0.00 | 38 | 1016.8 |
| 20260504181014 | 74 | 274 | 3.0 | 6.0 | 0.00 | 0.00 | 0.00 | 37 | 1016.8 |
| 20260504180510 | 75 | 250 | 3.0 | 7.0 | 0.00 | 0.00 | 0.00 | 35 | 1016.8 |
| 20260504180007 | 74 | 284 | 1.0 | 6.0 | 0.00 | 0.00 | 0.00 | 38 | 1016.9 |
| 20260504175509 | 73 | 313 | 2.0 | 6.0 | 0.00 | 0.00 | 0.00 | 39 | 1016.9 |
| 20260504175010 | 71 | 89 | 1.0 | 3.0 | 0.00 | 0.00 | 0.00 | 36 | 1017.0 |
| 20260504174509 | 72 | 43 | 0.0 | 7.0 | 0.00 | 0.00 | 0.00 | 37 | 1017.0 |
| 20260504174006 | 73 | 210 | 3.0 | 11.0 | 0.00 | 0.00 | 0.00 | 35 | 1017.1 |
| 20260504173506 | 74 | 211 | 4.0 | 11.0 | 0.00 | 0.00 | 0.00 | 36 | 1017.0 |
| 20260504173006 | 73 | 138 | 2.0 | 8.0 | 0.00 | 0.00 | 0.00 | 39 | 1017.0 |
| 20260504172504 | 73 | 147 | 3.0 | 8.0 | 0.00 | 0.00 | 0.00 | 36 | 1017.1 |
| 20260504172003 | 72 | 319 | 2.0 | 6.0 | 0.00 | 0.00 | 0.00 | 37 | 1017.1 |
| 20260504171503 | 72 | 265 | 0.0 | 6.0 | 0.00 | 0.00 | 0.00 | 43 | 1017.2 |
| 20260504171003 | 72 | 234 | 2.0 | 4.0 | 0.00 | 0.00 | 0.00 | 37 | 1017.2 |
| 20260504170502 | 72 | 228 | 1.0 | 4.0 | 0.00 | 0.00 | 0.00 | 41 | 1017.3 |
| 20260504151047 | 67 | 304 | 1.0 | 7.0 | 0.00 | 0.00 | 0.00 | 43 | 1019.4 |
| 20260504150547 | 67 | 236 | 2.0 | 7.0 | 0.00 | 0.00 | 0.00 | 38 | 1019.4 |
| 20260504141036 | 64 | 267 | 1.0 | 4.0 | 0.00 | 0.00 | 0.00 | 49 | 1019.2 |
| 20260504140535 | 63 | 336 | 1.0 | 7.0 | 0.00 | 0.00 | 0.00 | 50 | 1019.1 |
| 20260504130522 | 56 | 238 | 0.0 | 3.0 | 0.00 | 0.00 | 0.00 | 65 | 1019.1 |
| 20260504110503 | 40 | 254 | 0.0 | 1.0 | 0.00 | 0.00 | 0.00 | 91 | 1018.6 |
| 20260504100600 | 39 | 253 | 0.0 | 0.0 | 0.00 | 0.00 | 0.00 | 92 | 1018.7 |
| 20260504100104 | 39 | 253 | 0.0 | 0.0 | 0.00 | 0.00 | 0.00 | 92 | 1018.6 |
| 20260504090107 | 40 | 260 | 0.0 | 0.0 | 0.00 | 0.00 | 0.00 | 90 | 1018.9 |
| 20260504081553 | 40 | 260 | 0.0 | 0.0 | 0.00 | 0.00 | 0.00 | 89 | 1018.3 |
| 20260504081049 | 41 | 260 | 0.0 | 0.0 | 0.00 | 0.00 | 0.00 | 90 | 1018.4 |
| 20260504080549 | 41 | 260 | 0.0 | 0.0 | 0.00 | 0.00 | 0.00 | 89 | 1018.3 |
| 20260504050532 | 44 | 223 | 0.0 | 0.0 | 0.00 | 0.00 | 0.00 | 83 | 1018.9 |
| 20260504045530 | 44 | 223 | 0.0 | 0.0 | 0.00 | 0.00 | 0.00 | 83 | 1018.8 |
| 20260504045030 | 44 | 223 | 0.0 | 0.0 | 0.00 | 0.00 | 0.00 | 83 | 1018.9 |
| 20260504044531 | 44 | 223 | 0.0 | 0.0 | 0.00 | 0.00 | 0.00 | 83 | 1018.8 |
| 20260504044030 | 44 | 223 | 0.0 | 0.0 | 0.00 | 0.00 | 0.00 | 82 | 1018.8 |
| 20260504043528 | 45 | 223 | 0.0 | 0.0 | 0.00 | 0.00 | 0.00 | 82 | 1018.7 |
| 20260504043042 | 45 | 223 | 0.0 | 0.0 | 0.00 | 0.00 | 0.00 | 82 | 1018.6 |
| 20260504042527 | 45 | 223 | 0.0 | 0.0 | 0.00 | 0.00 | 0.00 | 82 | 1018.7 |
| 20260504042026 | 45 | 223 | 0.0 | 0.0 | 0.00 | 0.00 | 0.00 | 82 | 1018.7 |
| 20260504041530 | 45 | 223 | 0.0 | 0.0 | 0.00 | 0.00 | 0.00 | 81 | 1018.6 |
| 20260504041026 | 45 | 223 | 0.0 | 0.0 | 0.00 | 0.00 | 0.00 | 81 | 1018.5 |
| 20260504040524 | 45 | 223 | 0.0 | 0.0 | 0.00 | 0.00 | 0.00 | 80 | 1018.5 |
| 20260504040025 | 46 | 223 | 0.0 | 0.0 | 0.00 | 0.00 | 0.00 | 79 | 1018.5 |
| 20260504035525 | 46 | 223 | 0.0 | 0.0 | 0.00 | 0.00 | 0.00 | 79 | 1018.4 |
| 20260504035024 | 46 | 223 | 0.0 | 0.0 | 0.00 | 0.00 | 0.00 | 78 | 1018.5 |
| 20260504034523 | 46 | 223 | 0.0 | 0.0 | 0.00 | 0.00 | 0.00 | 78 | 1018.5 |
| 20260504034022 | 46 | 223 | 0.0 | 0.0 | 0.00 | 0.00 | 0.00 | 78 | 1018.5 |
| 20260504033522 | 46 | 223 | 0.0 | 0.0 | 0.00 | 0.00 | 0.00 | 78 | 1018.6 |
| 20260504033024 | 47 | 223 | 0.0 | 0.0 | 0.00 | 0.00 | 0.00 | 76 | 1018.7 |
| 20260504032522 | 47 | 223 | 0.0 | 0.0 | 0.00 | 0.00 | 0.00 | 76 | 1018.7 |
| 20260504032022 | 47 | 223 | 0.0 | 0.0 | 0.00 | 0.00 | 0.00 | 75 | 1018.6 |
| 20260504031522 | 47 | 223 | 0.0 | 0.0 | 0.00 | 0.00 | 0.00 | 74 | 1018.7 |
| 20260504031021 | 48 | 223 | 0.0 | 0.0 | 0.00 | 0.00 | 0.00 | 73 | 1018.8 |
| 20260504030521 | 48 | 223 | 0.0 | 0.0 | 0.00 | 0.00 | 0.00 | 72 | 1018.8 |
| 20260504030021 | 48 | 223 | 0.0 | 0.0 | 0.00 | 0.00 | 0.00 | 71 | 1018.9 |
| 20260504025521 | 48 | 223 | 0.0 | 0.0 | 0.00 | 0.00 | 0.00 | 71 | 1018.8 |
| 20260504025021 | 49 | 223 | 0.0 | 0.0 | 0.00 | 0.00 | 0.00 | 71 | 1018.8 |
| 20260504024521 | 49 | 223 | 0.0 | 0.0 | 0.00 | 0.00 | 0.00 | 70 | 1018.9 |
| 20260504024022 | 49 | 223 | 0.0 | 0.0 | 0.00 | 0.00 | 0.00 | 70 | 1018.7 |
| 20260504023521 | 49 | 223 | 0.0 | 0.0 | 0.00 | 0.00 | 0.00 | 70 | 1018.6 |
| 20260504023026 | 49 | 223 | 0.0 | 0.0 | 0.00 | 0.00 | 0.00 | 69 | 1018.8 |
| 20260504022521 | 49 | 223 | 0.0 | 0.0 | 0.00 | 0.00 | 0.00 | 68 | 1018.7 |
| 20260504022020 | 50 | 223 | 0.0 | 0.0 | 0.00 | 0.00 | 0.00 | 68 | 1018.6 |
| 20260504021622 | 50 | 223 | 0.0 | 0.0 | 0.00 | 0.00 | 0.00 | 67 | 1018.5 |
| 20260504021020 | 51 | 223 | 0.0 | 0.0 | 0.00 | 0.00 | 0.00 | 67 | 1018.4 |
| 20260504020520 | 51 | 223 | 0.0 | 0.0 | 0.00 | 0.00 | 0.00 | 66 | 1018.3 |
| 20260504020019 | 51 | 223 | 0.0 | 0.0 | 0.00 | 0.00 | 0.00 | 65 | 1018.3 |
| 20260504015519 | 51 | 223 | 0.0 | 0.0 | 0.00 | 0.00 | 0.00 | 64 | 1018.3 |
| 20260504015022 | 52 | 211 | 0.0 | 0.0 | 0.00 | 0.00 | 0.00 | 63 | 1018.2 |
| 20260504014524 | 52 | 212 | 0.0 | 0.0 | 0.00 | 0.00 | 0.00 | 61 | 1017.9 |
| 20260504014018 | 52 | 209 | 0.0 | 0.0 | 0.00 | 0.00 | 0.00 | 60 | 1017.7 |
| 20260504013518 | 53 | 209 | 0.0 | 0.0 | 0.00 | 0.00 | 0.00 | 59 | 1017.6 |
| 20260504013021 | 53 | 209 | 0.0 | 0.0 | 0.00 | 0.00 | 0.00 | 58 | 1017.5 |
| 20260504012520 | 53 | 209 | 0.0 | 0.0 | 0.00 | 0.00 | 0.00 | 57 | 1017.5 |
| 20260504012018 | 54 | 209 | 0.0 | 0.0 | 0.00 | 0.00 | 0.00 | 54 | 1017.4 |
| 20260504011522 | 54 | 209 | 0.0 | 0.0 | 0.00 | 0.00 | 0.00 | 53 | 1017.5 |
| 20260504011017 | 55 | 209 | 0.0 | 0.0 | 0.00 | 0.00 | 0.00 | 52 | 1017.5 |
| 20260504010517 | 55 | 209 | 0.0 | 0.0 | 0.00 | 0.00 | 0.00 | 51 | 1017.3 |
| 20260504010017 | 55 | 209 | 0.0 | 0.0 | 0.00 | 0.00 | 0.00 | 51 | 1017.3 |
| 20260504005518 | 55 | 209 | 0.0 | 0.0 | 0.00 | 0.00 | 0.00 | 50 | 1017.3 |
| 20260504005021 | 56 | 209 | 0.0 | 0.0 | 0.00 | 0.00 | 0.00 | 50 | 1017.3 |
| 20260504004520 | 57 | 209 | 0.0 | 0.0 | 0.00 | 0.00 | 0.00 | 48 | 1017.2 |
| 20260504004017 | 58 | 209 | 0.0 | 0.0 | 0.00 | 0.00 | 0.00 | 47 | 1017.2 |
| 20260504003516 | 59 | 209 | 0.0 | 1.0 | 0.00 | 0.00 | 0.00 | 45 | 1017.2 |
| 20260504003016 | 59 | 221 | 0.0 | 1.0 | 0.00 | 0.00 | 0.00 | 43 | 1017.1 |
| 20260504002519 | 59 | 221 | 0.0 | 1.0 | 0.00 | 0.00 | 0.00 | 42 | 1017.1 |
| 20260504002018 | 59 | 221 | 0.0 | 1.0 | 0.00 | 0.00 | 0.00 | 42 | 1017.1 |
| 20260504001516 | 60 | 221 | 0.0 | 1.0 | 0.00 | 0.00 | 0.00 | 41 | 1016.9 |
| 20260504001016 | 60 | 221 | 0.0 | 1.0 | 0.00 | 0.00 | 0.00 | 40 | 1017.0 |
| 20260504000515 | 61 | 221 | 0.0 | 0.0 | 0.00 | 0.00 | 0.00 | 40 | 1017.0 |
| 20260504000015 | 61 | 221 | 0.0 | 1.0 | 0.00 | 0.00 | 0.00 | 38 | 1017.0 |
| 20260503235516 | 62 | 213 | 0.0 | 5.0 | 0.00 | 0.00 | 0.00 | 37 | 1017.0 |
| 20260503235015 | 63 | 217 | 0.0 | 5.0 | 0.00 | 0.00 | 0.00 | 35 | 1017.0 |
| 20260503234516 | 63 | 202 | 1.0 | 4.0 | 0.00 | 0.00 | 0.00 | 34 | 1016.9 |
| 20260503234015 | 64 | 205 | 0.0 | 5.0 | 0.00 | 0.00 | 0.00 | 34 | 1016.8 |
| 20260503233515 | 64 | 212 | 2.0 | 5.0 | 0.00 | 0.00 | 0.00 | 33 | 1016.8 |
| 20260503233014 | 64 | 211 | 1.0 | 3.0 | 0.00 | 0.00 | 0.00 | 32 | 1016.9 |
| 20260503232516 | 64 | 211 | 0.0 | 3.0 | 0.00 | 0.00 | 0.00 | 33 | 1016.7 |
| 20260503232014 | 65 | 221 | 0.0 | 3.0 | 0.00 | 0.00 | 0.00 | 33 | 1016.8 |
| 20260503231012 | 65 | 206 | 0.0 | 3.0 | 0.00 | 0.00 | 0.00 | 32 | 1016.7 |
| 20260503230611 | 65 | 259 | 1.0 | 3.0 | 0.00 | 0.00 | 0.00 | 33 | 1016.7 |
| 20260503230014 | 65 | 233 | 1.0 | 5.0 | 0.00 | 0.00 | 0.00 | 33 | 1016.7 |
| 20260503225513 | 66 | 207 | 0.0 | 7.0 | 0.00 | 0.00 | 0.00 | 33 | 1016.8 |
| 20260503225014 | 66 | 207 | 1.0 | 7.0 | 0.00 | 0.00 | 0.00 | 32 | 1016.8 |
| 20260503224514 | 66 | 294 | 1.0 | 3.0 | 0.00 | 0.00 | 0.00 | 35 | 1016.8 |
| 20260503224010 | 66 | 243 | 0.0 | 5.0 | 0.00 | 0.00 | 0.00 | 32 | 1016.8 |
| 20260503223512 | 66 | 190 | 1.0 | 6.0 | 0.00 | 0.00 | 0.00 | 35 | 1016.9 |
| 20260503223010 | 66 | 228 | 1.0 | 6.0 | 0.00 | 0.00 | 0.00 | 34 | 1016.9 |
| 20260503222509 | 66 | 211 | 1.0 | 5.0 | 0.00 | 0.00 | 0.00 | 32 | 1016.8 |
| 20260503222009 | 67 | 196 | 0.0 | 5.0 | 0.00 | 0.00 | 0.00 | 33 | 1016.8 |
| 20260503221508 | 67 | 210 | 0.0 | 5.0 | 0.00 | 0.00 | 0.00 | 35 | 1016.9 |
| 20260503221009 | 67 | 184 | 1.0 | 5.0 | 0.00 | 0.00 | 0.00 | 33 | 1016.9 |
| 20260503220508 | 67 | 205 | 1.0 | 6.0 | 0.00 | 0.00 | 0.00 | 33 | 1017.0 |
| 20260503220007 | 67 | 291 | 1.0 | 9.0 | 0.00 | 0.00 | 0.00 | 34 | 1017.1 |
| 20260503215507 | 67 | 227 | 3.0 | 9.0 | 0.00 | 0.00 | 0.00 | 33 | 1017.1 |
| 20260503215006 | 67 | 235 | 1.0 | 5.0 | 0.00 | 0.00 | 0.00 | 34 | 1017.1 |
| 20260503214506 | 67 | 242 | 1.0 | 5.0 | 0.00 | 0.00 | 0.00 | 34 | 1017.1 |
| 20260503214007 | 67 | 124 | 0.0 | 6.0 | 0.00 | 0.00 | 0.00 | 33 | 1017.2 |
| 20260503213506 | 67 | 235 | 2.0 | 6.0 | 0.00 | 0.00 | 0.00 | 33 | 1017.3 |
| 20260503213006 | 66 | 217 | 2.0 | 6.0 | 0.00 | 0.00 | 0.00 | 33 | 1017.4 |
| 20260503212505 | 67 | 214 | 2.0 | 7.0 | 0.00 | 0.00 | 0.00 | 31 | 1017.4 |
| 20260503212005 | 67 | 194 | 2.0 | 7.0 | 0.00 | 0.00 | 0.00 | 33 | 1017.4 |
| 20260503211504 | 66 | 201 | 2.0 | 7.0 | 0.00 | 0.00 | 0.00 | 32 | 1017.6 |
| 20260503211005 | 67 | 103 | 2.0 | 7.0 | 0.00 | 0.00 | 0.00 | 32 | 1017.7 |
| 20260503210507 | 66 | 172 | 3.0 | 7.0 | 0.00 | 0.00 | 0.00 | 32 | 1017.8 |
| 20260503210005 | 67 | 144 | 2.0 | 6.0 | 0.00 | 0.00 | 0.00 | 32 | 1017.8 |
| 20260503205504 | 66 | 297 | 2.0 | 7.0 | 0.00 | 0.00 | 0.00 | 31 | 1017.8 |
| 20260503205004 | 66 | 201 | 3.0 | 7.0 | 0.00 | 0.00 | 0.00 | 29 | 1017.9 |
| 20260503204512 | 66 | 183 | 1.0 | 6.0 | 0.00 | 0.00 | 0.00 | 31 | 1017.9 |
| 20260503204003 | 66 | 200 | 1.0 | 4.0 | 0.00 | 0.00 | 0.00 | 31 | 1018.2 |
| 20260503203504 | 65 | 171 | 1.0 | 7.0 | 0.00 | 0.00 | 0.00 | 28 | 1018.2 |
| 20260503203004 | 66 | 214 | 1.0 | 7.0 | 0.00 | 0.00 | 0.00 | 28 | 1018.2 |
| 20260503202503 | 66 | 266 | 1.0 | 7.0 | 0.00 | 0.00 | 0.00 | 31 | 1018.3 |
| 20260503202003 | 66 | 242 | 1.0 | 6.0 | 0.00 | 0.00 | 0.00 | 31 | 1018.3 |
| 20260503201506 | 66 | 213 | 1.0 | 7.0 | 0.00 | 0.00 | 0.00 | 29 | 1018.5 |
| 20260503201003 | 66 | 220 | 2.0 | 7.0 | 0.00 | 0.00 | 0.00 | 28 | 1018.5 |
| 20260503200502 | 65 | 162 | 1.0 | 10.0 | 0.00 | 0.00 | 0.00 | 29 | 1018.6 |
| 20260503200005 | 66 | 251 | 4.0 | 10.0 | 0.00 | 0.00 | 0.00 | 28 | 1018.8 |
| 20260503195501 | 66 | 221 | 3.0 | 6.0 | 0.00 | 0.00 | 0.00 | 29 | 1018.8 |
| 20260503195001 | 65 | 117 | 3.0 | 7.0 | 0.00 | 0.00 | 0.00 | 30 | 1019.0 |
| 20260503194501 | 66 | 249 | 1.0 | 7.0 | 0.00 | 0.00 | 0.00 | 30 | 1019.1 |
| 20260503194100 | 66 | 246 | 3.0 | 6.0 | 0.00 | 0.00 | 0.00 | 31 | 1019.1 |
| 20260503193600 | 65 | 146 | 1.0 | 6.0 | 0.00 | 0.00 | 0.00 | 29 | 1019.1 |
| 20260503193100 | 66 | 5 | 0.0 | 5.0 | 0.00 | 0.00 | 0.00 | 28 | 1019.1 |
| 20260503192558 | 66 | 25 | 2.0 | 5.0 | 0.00 | 0.00 | 0.00 | 37 | 1019.2 |
| 20260503192058 | 63 | 86 | 1.0 | 5.0 | 0.00 | 0.00 | 0.00 | 31 | 1019.2 |
| 20260503191558 | 64 | 238 | 2.0 | 4.0 | 0.00 | 0.00 | 0.00 | 31 | 1019.4 |
| 20260503191059 | 64 | 200 | 1.0 | 5.0 | 0.00 | 0.00 | 0.00 | 33 | 1019.3 |
| 20260503190600 | 64 | 133 | 1.0 | 5.0 | 0.00 | 0.00 | 0.00 | 35 | 1019.5 |
| 20260503190058 | 63 | 219 | 0.0 | 4.0 | 0.00 | 0.00 | 0.00 | 33 | 1019.5 |
| 20260503185558 | 64 | 58 | 1.0 | 4.0 | 0.00 | 0.00 | 0.00 | 34 | 1019.6 |